TimeMDT,TemperatureF,Dew PointF,Humidity,Sea Level PressureIn,VisibilityMPH,Wind Direction,Wind SpeedMPH,Gust SpeedMPH,PrecipitationIn,Events,Conditions,WindDirDegrees,DateUTC
12:51 AM,34.0,19.9,56,30.21,-9999.0,SSE,5.8,-,N/A,,Unknown,150,2013-03-11 06:51:00
1:51 AM,34.0,19.0,54,30.17,-9999.0,Calm,Calm,-,N/A,,Unknown,0,2013-03-11 07:51:00
2:51 AM,33.1,21.0,61,30.14,-9999.0,Calm,Calm,-,N/A,,Unknown,0,2013-03-11 08:51:00
3:51 AM,37.0,25.0,62,30.10,-9999.0,WNW,8.1,17.3,N/A,,Unknown,300,2013-03-11 09:51:00
4:51 AM,36.0,25.0,64,30.07,-9999.0,Variable,5.8,-,N/A,,Unknown,0,2013-03-11 10:51:00
5:51 AM,36.0,24.1,62,30.06,-9999.0,WNW,8.1,-,N/A,,Unknown,290,2013-03-11 11:51:00
6:51 AM,36.0,24.1,62,30.08,-9999.0,NW,6.9,-,N/A,,Unknown,310,2013-03-11 12:51:00
7:51 AM,35.1,25.0,67,30.10,-9999.0,WNW,4.6,-,N/A,,Unknown,300,2013-03-11 13:51:00
8:51 AM,34.0,25.0,70,30.12,-9999.0,NW,5.8,-,N/A,,Unknown,320,2013-03-11 14:51:00
9:51 AM,34.0,27.0,75,30.13,-9999.0,North,6.9,-,N/A,,Unknown,10,2013-03-11 15:51:00
10:51 AM,36.0,24.1,62,30.12,-9999.0,North,5.8,-,N/A,,Unknown,350,2013-03-11 16:51:00
11:51 AM,39.0,21.0,49,30.11,-9999.0,Variable,3.5,-,N/A,,Unknown,0,2013-03-11 17:51:00
12:51 PM,39.0,21.9,50,30.10,-9999.0,North,8.1,-,N/A,,Unknown,360,2013-03-11 18:51:00
1:51 PM,39.9,19.9,45,30.09,-9999.0,North,8.1,-,N/A,,Unknown,350,2013-03-11 19:51:00
2:51 PM,39.9,19.0,43,30.08,-9999.0,North,10.4,18.4,N/A,,Unknown,350,2013-03-11 20:51:00
3:51 PM,39.9,18.0,41,30.05,-9999.0,North,11.5,18.4,N/A,,Unknown,350,2013-03-11 21:51:00
4:51 PM,39.9,17.1,40,30.06,-9999.0,North,9.2,-,N/A,,Unknown,360,2013-03-11 22:51:00
5:51 PM,37.0,17.1,44,30.07,-9999.0,NNW,5.8,-,N/A,,Unknown,340,2013-03-11 23:51:00
6:51 PM,35.1,18.0,50,30.08,-9999.0,NNW,5.8,-,N/A,,Unknown,340,2013-03-12 00:51:00
7:51 PM,34.0,19.0,54,30.09,-9999.0,Calm,Calm,-,N/A,,Unknown,0,2013-03-12 01:51:00
8:51 PM,32.0,19.0,59,30.13,-9999.0,NNW,3.5,-,N/A,,Unknown,340,2013-03-12 02:51:00
9:51 PM,30.0,19.9,66,30.15,-9999.0,South,3.5,-,N/A,,Unknown,190,2013-03-12 03:51:00
10:51 PM,30.0,21.0,69,30.15,-9999.0,Calm,Calm,-,N/A,,Unknown,0,2013-03-12 04:51:00
11:51 PM,30.0,19.9,66,30.14,-9999.0,Calm,Calm,-,N/A,,Unknown,0,2013-03-12 05:51:00